[[{"header":{"parameterUnit":"m.s-1","parameterCategory":2,"la1":30.2991,"la2":30.254,"lo1":-89.0895,"lo2":-89.0444,"dy":0.0017,"dx":0.0017,"nx":28,"ny":28,"refTime":"2023-11-17T09:00:00:Z","depth":"0","parameterNumber":2,"parameterNumberName":"U-component_of_CURRENTS"},"data":[0,0,0,0,0,0,0,0,0,0,0,0,0,0,0,0,0,0,0,0,0,0,0,0,0,0,0,0,0,0,0,0,0,0,0,0,0,0,0,0,0,0,0,0,0,0,0,0,0,0,0,0,0,0,0,0,0,0,-0.2051,-0.2051,0,-0.2097,-0.2098,-0.2099,-0.2085,-0.2084,-0.2083,-0.2082,-0.2015,-0.2014,-0.2013,0,0,0,0,0,0,0,0,0,0,0,0,0,-0.1966,-0.1968,-0.2051,-0.2051,-0.2052,-0.2097,-0.2098,-0.2099,-0.2086,-0.2084,-0.2083,-0.2082,-0.2015,-0.2014,-0.2013,0,0,0,0,0,0,0,0,0,0,0,0,0,-0.2008,-0.1968,-0.205,-0.205,-0.205,-0.2097,-0.2098,-0.2099,-0.2086,-0.2084,-0.2083,-0.2081,-0.2015,-0.2014,-0.2013,-0.2037,0,0,-0.2009,-0.2009,0,0,0,0,0,0,0,0,-0.2005,-0.2011,-0.2049,-0.205,-0.205,-0.2083,-0.2044,-0.2072,-0.2086,-0.2073,-0.2082,-0.208,-0.2027,-0.2025,-0.2041,-0.2034,-0.2031,-0.2009,-0.2008,-0.2008,-0.2007,0,0,0,0,0,0,0,-0.2002,-0.2009,-0.207,-0.205,-0.2051,-0.2052,-0.2057,-0.205,-0.2057,-0.2074,-0.2073,-0.2077,-0.2027,-0.2042,-0.2038,-0.203,-0.2009,-0.2008,-0.2007,-0.2007,-0.2068,-0.207,0,0,0,0,0,0,-0.1996,-0.2007,-0.2069,-0.2071,-0.2022,-0.2055,-0.206,-0.2075,-0.206,-0.2057,-0.2079,-0.2076,-0.2045,-0.204,-0.2036,-0.2067,-0.2008,-0.2007,-0.2006,-0.2066,-0.2068,-0.2071,0,0,0,0,0,0,-0.1994,-0.2002,-0.2067,-0.2038,-0.2046,-0.2058,-0.2075,-0.2077,-0.2086,-0.2064,-0.2059,-0.2086,-0.2043,-0.2038,-0.2049,-0.2063,-0.2006,-0.2005,-0.2063,-0.2066,-0.207,-0.2125,0,0,0,0,0,0,-0.1992,-0.2001,-0.2011,-0.2038,-0.2048,-0.21,-0.2077,-0.2079,-0.2091,-0.2089,-0.2069,-0.2061,-0.2042,-0.2051,-0.2048,-0.2061,-0.2004,-0.206,-0.2064,-0.2069,-0.2121,-0.213,-0.2139,0,0,0,0,0,-0.1989,-0.2004,-0.2011,-0.2019,-0.2061,-0.2101,-0.2107,-0.2109,-0.2093,-0.211,-0.2104,-0.2062,-0.2076,-0.2052,-0.2048,-0.206,-0.2058,-0.2063,-0.2068,-0.2117,-0.2129,-0.2139,0,0,0,0,0,0,-0.1977,-0.2006,-0.2013,-0.2038,-0.2071,-0.2098,-0.211,-0.2114,-0.2126,-0.2115,-0.209,-0.2085,-0.21,-0.2085,-0.2059,-0.2097,-0.2061,-0.2065,-0.2099,-0.211,-0.2119,-0.2114,-0.2003,0,0,0,0,0,-0.198,-0.199,-0.2032,-0.2049,-0.2069,-0.2092,-0.2107,-0.2112,-0.2126,-0.2129,-0.2122,-0.2117,-0.2123,-0.2118,-0.212,-0.2139,-0.2118,-0.2148,-0.2157,-0.2165,-0.2162,-0.2166,-0.2174,-0.2088,-0.2088,-0.2088,0,0,-0.1976,-0.1993,-0.1998,-0.2045,-0.2068,-0.2106,-0.2097,-0.2123,-0.2145,-0.2119,-0.2144,-0.2145,-0.2138,-0.2163,-0.2168,-0.2146,-0.2181,-0.2172,-0.2178,-0.2171,-0.2172,-0.218,-0.2187,-0.2092,-0.2091,-0.2091,0,0,-0.1979,-0.1997,-0.2017,-0.2049,-0.2087,-0.2109,-0.2118,-0.2158,-0.2167,-0.2199,-0.219,-0.2214,-0.2212,-0.2227,-0.2227,-0.2292,-0.223,-0.2283,-0.2318,-0.2322,-0.2328,-0.2333,-0.2317,-0.232,-0.2285,-0.2285,-0.2285,0,-0.1976,-0.2004,-0.2029,-0.2066,-0.2086,-0.2111,-0.2146,-0.2172,-0.2208,-0.2224,-0.2209,-0.2249,-0.2247,-0.2282,-0.2309,-0.2309,-0.2287,-0.227,-0.233,-0.2335,-0.2339,-0.2321,-0.2324,-0.2289,-0.2288,-0.2288,-0.2288,0,-0.2005,-0.2028,-0.2044,-0.2093,-0.2128,-0.2154,-0.22,-0.2232,-0.2241,-0.2267,-0.2306,-0.232,-0.2341,-0.2353,-0.2346,-0.2384,-0.235,-0.2339,-0.2293,-0.235,-0.2329,-0.233,-0.2293,-0.2292,-0.2291,-0.229,0,0,-0.1972,-0.205,-0.2048,-0.2077,-0.2137,-0.2168,-0.2216,-0.2272,-0.2304,-0.2335,-0.237,-0.2409,-0.2415,-0.2419,-0.242,-0.2431,-0.2453,-0.2396,-0.2394,-0.2363,-0.2436,-0.2259,-0.2244,-0.2438,-0.2438,-0.2439,-0.2407,0,-0.1978,-0.2041,-0.2077,-0.2127,-0.2164,-0.2208,-0.2254,-0.2307,-0.2343,-0.239,-0.2412,-0.2444,-0.2438,-0.2448,-0.2462,-0.2457,-0.2459,-0.2461,-0.2399,-0.2397,-0.2219,-0.2241,-0.2094,-0.2039,-0.2409,-0.2409,-0.2409,0,-0.1977,-0.2018,-0.2076,-0.2145,-0.2167,-0.2204,-0.2275,-0.2321,-0.2396,-0.2424,-0.2463,-0.2479,-0.2516,-0.2494,-0.2501,-0.2493,-0.2469,-0.2458,-0.2456,-0.2268,-0.2223,-0.2045,-0.2028,-0.1996,-0.2411,-0.2411,-0.2411,0,-0.1924,-0.2003,-0.2043,-0.2069,-0.2166,-0.2195,-0.2241,-0.2326,-0.2369,-0.2441,-0.2467,-0.2513,-0.2516,-0.2515,-0.2487,-0.2496,-0.2465,-0.2477,-0.2296,-0.2283,-0.2134,-0.2105,-0.206,-0.2472,-0.2472,-0.2472,-0.2473,0,-0.19,-0.1927,-0.2021,-0.2044,-0.2103,-0.2167,-0.2228,-0.2294,-0.2363,-0.2404,-0.247,-0.2483,-0.2516,-0.2502,-0.2489,-0.2371,-0.2463,-0.2291,-0.2259,-0.2148,-0.2122,-0.2065,-0.2102,-0.2471,-0.2471,-0.2472,-0.2472,0,-0.1848,-0.1899,-0.1956,-0.205,-0.2083,-0.2123,-0.2218,-0.2253,-0.2328,-0.2375,-0.2392,-0.2454,-0.2416,-0.2419,-0.2402,-0.2335,-0.2209,-0.2212,-0.2061,-0.2009,-0.1779,-0.1825,-0.1753,-0.1712,-0.201,-0.2005,-0.2001,0,-0.1834,-0.1855,-0.1961,-0.1982,-0.2024,-0.2089,-0.2127,-0.2226,-0.2256,-0.2337,-0.2339,-0.2335,-0.2291,-0.2187,-0.2074,-0.1977,-0.2031,-0.179,-0.1779,-0.1724,-0.1757,-0.1815,-0.1793,-0.1624,-0.1617,-0.1612,-0.1607,0,-0.1794,-0.1829,-0.1876,-0.1935,-0.1971,-0.2027,-0.2079,-0.2106,-0.2192,-0.2215,-0.2209,-0.2179,-0.2049,-0.1848,-0.1699,-0.1647,-0.1713,-0.1668,-0.1672,-0.1482,-0.1488,-0.1444,-0.1692,-0.1559,-0.1564,-0.1567,-0.157,-0.1572,-0.1746,-0.1773,-0.1815,-0.187,-0.1908,-0.1924,-0.1908,-0.1946,-0.1962,-0.1923,-0.1982,-0.1838,-0.1678,-0.142,-0.1364,-0.1168,-0.1319,-0.1128,-0.1201,-0.1275,-0.1187,-0.1292,-0.1076,-0.1078,-0.108,-0.1082,-0.1083,0,-0.1672,-0.1697,-0.1737,-0.1771,-0.1759,-0.1817,-0.1835,-0.177,-0.1709,-0.1668,-0.1586,-0.1343,-0.1125,-0.1028,-0.0809,-0.0732,-0.0782,-0.0748,-0.0846,-0.0857,-0.098,-0.0909,-0.0572,-0.0572,-0.0572,-0.0572,-0.0572,-0.0572,-0.1622,-0.1614,-0.1648,-0.1597,-0.1609,-0.1524,-0.1493,-0.1411,-0.1341,-0.1138,-0.097,-0.088,-0.081,-0.0734,-0.0596,-0.0558,-0.0616,-0.0553,-0.0661,-0.0787,-0.0831,-0.0873,-0.0814,-0.0462,-0.0462,-0.0476,-0.0476,-0.0476]},{"header":{"parameterUnit":"m.s-1","parameterCategory":2,"la1":30.2991,"la2":30.254,"lo1":-89.0895,"lo2":-89.0444,"dy":0.0017,"dx":0.0017,"nx":28,"ny":28,"refTime":"2023-11-17T09:00:00:Z","depth":"0","parameterNumber":3,"parameterNumberName":"V-component_of_CURRENTS"},"data":[0,0,0,0,0,0,0,0,0,0,0,0,0,0,0,0,0,0,0,0,0,0,0,0,0,0,0,0,0,0,0,0,0,0,0,0,0,0,0,0,0,0,0,0,0,0,0,0,0,0,0,0,0,0,0,0,0,0,-0.0801,-0.0799,0,-0.071,-0.0709,-0.0708,-0.0673,-0.0673,-0.0673,-0.0673,-0.0564,-0.0562,-0.0559,0,0,0,0,0,0,0,0,0,0,0,0,0,-0.0889,-0.0889,-0.0801,-0.0799,-0.0798,-0.071,-0.0709,-0.0708,-0.0673,-0.0673,-0.0673,-0.0673,-0.0565,-0.0562,-0.0559,0,0,0,0,0,0,0,0,0,0,0,0,0,-0.0834,-0.0888,-0.0801,-0.0767,-0.0763,-0.071,-0.0709,-0.0708,-0.0673,-0.0673,-0.0673,-0.0673,-0.0566,-0.0562,-0.0558,-0.0535,0,0,-0.0545,-0.0543,0,0,0,0,0,0,0,0,-0.0837,-0.0831,-0.0773,-0.0769,-0.0764,-0.0699,-0.07,-0.0648,-0.0673,-0.0711,-0.0673,-0.0672,-0.0606,-0.0598,-0.0587,-0.053,-0.0525,-0.0545,-0.0542,-0.0541,-0.0539,0,0,0,0,0,0,0,-0.0841,-0.0834,-0.0768,-0.0772,-0.0766,-0.0737,-0.073,-0.069,-0.0663,-0.0707,-0.0704,-0.0688,-0.0604,-0.0591,-0.0584,-0.0524,-0.0545,-0.0541,-0.0539,-0.0537,-0.0466,-0.0467,0,0,0,0,0,0,-0.0848,-0.0838,-0.0771,-0.0765,-0.0797,-0.0736,-0.0728,-0.0723,-0.0663,-0.0653,-0.0688,-0.0687,-0.0598,-0.0589,-0.058,-0.0591,-0.0541,-0.0537,-0.0534,-0.0465,-0.0466,-0.0467,0,0,0,0,0,0,-0.085,-0.0843,-0.0775,-0.0796,-0.0785,-0.0735,-0.0729,-0.0722,-0.0709,-0.0648,-0.0638,-0.0684,-0.0598,-0.0586,-0.0551,-0.0585,-0.0535,-0.0531,-0.0465,-0.0466,-0.0466,-0.0585,0,0,0,0,0,0,-0.0853,-0.0845,-0.085,-0.0797,-0.0784,-0.0754,-0.0729,-0.072,-0.0698,-0.0695,-0.0641,-0.0631,-0.0597,-0.0558,-0.0547,-0.0578,-0.0528,-0.0464,-0.0465,-0.0466,-0.0581,-0.059,-0.0598,0,0,0,0,0,-0.0857,-0.0868,-0.0851,-0.0843,-0.0791,-0.0754,-0.0746,-0.0711,-0.0698,-0.0699,-0.0661,-0.0633,-0.0558,-0.0554,-0.0542,-0.0573,-0.0463,-0.0465,-0.0466,-0.0577,-0.0588,-0.0598,0,0,0,0,0,0,-0.0916,-0.0863,-0.0844,-0.084,-0.0803,-0.0747,-0.0742,-0.0715,-0.0686,-0.0685,-0.0631,-0.0619,-0.0602,-0.0564,-0.0561,-0.0554,-0.0509,-0.0508,-0.0598,-0.0608,-0.0617,-0.0629,-0.0524,0,0,0,0,0,-0.0929,-0.0922,-0.0865,-0.0864,-0.0846,-0.0795,-0.0777,-0.0752,-0.0713,-0.07,-0.0659,-0.0621,-0.0598,-0.0584,-0.0547,-0.0538,-0.0492,-0.0551,-0.056,-0.0568,-0.0568,-0.0546,-0.0553,-0.0471,-0.0471,-0.0471,0,0,-0.095,-0.0921,-0.0917,-0.0875,-0.0844,-0.0829,-0.0785,-0.0762,-0.0757,-0.0692,-0.0677,-0.0642,-0.0598,-0.0594,-0.0584,-0.0568,-0.0562,-0.057,-0.0577,-0.0573,-0.0548,-0.0556,-0.0564,-0.0472,-0.0472,-0.0472,0,0,-0.0984,-0.0964,-0.0963,-0.0936,-0.0889,-0.086,-0.0855,-0.08,-0.0786,-0.076,-0.0724,-0.0711,-0.0655,-0.0648,-0.0635,-0.0666,-0.0604,-0.0655,-0.0719,-0.0699,-0.0706,-0.0711,-0.0646,-0.0645,-0.0668,-0.0668,-0.0669,0,-0.1012,-0.1002,-0.0958,-0.0948,-0.0936,-0.0879,-0.0879,-0.0855,-0.0799,-0.0803,-0.0768,-0.0723,-0.0687,-0.0705,-0.0719,-0.0691,-0.0647,-0.0689,-0.0713,-0.0717,-0.0721,-0.0652,-0.065,-0.0674,-0.0674,-0.0673,-0.0672,0,-0.1029,-0.1029,-0.1028,-0.1001,-0.0986,-0.0977,-0.0934,-0.0923,-0.0896,-0.088,-0.0876,-0.0823,-0.0804,-0.0799,-0.0766,-0.0789,-0.0736,-0.0724,-0.0692,-0.0737,-0.0661,-0.0656,-0.0683,-0.0681,-0.0679,-0.0677,0,0,-0.1061,-0.1047,-0.1042,-0.1052,-0.1014,-0.1006,-0.1007,-0.1001,-0.1017,-0.0974,-0.099,-0.0963,-0.0941,-0.0922,-0.0887,-0.0871,-0.0857,-0.0815,-0.0811,-0.0761,-0.0774,-0.0677,-0.0661,-0.0852,-0.0852,-0.0852,-0.0705,0,-0.1085,-0.1101,-0.1079,-0.1102,-0.1109,-0.1077,-0.1086,-0.1081,-0.1067,-0.1067,-0.1038,-0.1034,-0.0988,-0.0982,-0.0964,-0.0879,-0.0851,-0.0895,-0.0728,-0.0722,-0.0641,-0.0656,-0.0608,-0.0468,-0.0699,-0.0699,-0.0698,0,-0.1099,-0.1109,-0.1144,-0.1168,-0.1166,-0.1176,-0.1195,-0.1191,-0.1191,-0.118,-0.118,-0.1144,-0.1121,-0.1066,-0.0957,-0.0984,-0.0889,-0.0817,-0.081,-0.0675,-0.0617,-0.0462,-0.045,-0.0349,-0.0689,-0.069,-0.0691,0,-0.1149,-0.1158,-0.1199,-0.1201,-0.1211,-0.1232,-0.1234,-0.1241,-0.1254,-0.1255,-0.1262,-0.1227,-0.1183,-0.1094,-0.0936,-0.0952,-0.0781,-0.0788,-0.0607,-0.0597,-0.0498,-0.048,-0.0379,-0.071,-0.0711,-0.0711,-0.0711,0,-0.1194,-0.1218,-0.1229,-0.1252,-0.1304,-0.1284,-0.1336,-0.1336,-0.1337,-0.1361,-0.1326,-0.1304,-0.1187,-0.1075,-0.0951,-0.074,-0.079,-0.0606,-0.056,-0.0534,-0.0521,-0.0381,-0.0348,-0.0705,-0.0707,-0.0708,-0.0709,0,-0.1254,-0.1256,-0.13,-0.1322,-0.1338,-0.1371,-0.1398,-0.1423,-0.1417,-0.1435,-0.1437,-0.1352,-0.1191,-0.1042,-0.0851,-0.0733,-0.0474,-0.0475,-0.0423,-0.0374,-0.0135,-0.0112,0.0064,0.014,-0.0273,-0.0269,-0.0267,0,-0.1274,-0.1312,-0.1364,-0.1391,-0.1407,-0.1447,-0.1473,-0.1473,-0.1488,-0.145,-0.1452,-0.1312,-0.1177,-0.0845,-0.062,-0.0368,-0.0313,-0.0183,-0.0221,-0.0103,-0.0043,-0.0041,0.0008,-0.0125,-0.0121,-0.0118,-0.0116,0,-0.1317,-0.1348,-0.1393,-0.1461,-0.1499,-0.1537,-0.1566,-0.1586,-0.1564,-0.1541,-0.1433,-0.1314,-0.0987,-0.0657,-0.0335,-0.0203,-0.0101,-0.0113,-0.0023,0.0062,0.0101,0.019,-0.0213,-0.0089,-0.0092,-0.0094,-0.0095,-0.0097,-0.134,-0.139,-0.1458,-0.1523,-0.1565,-0.16,-0.1611,-0.1596,-0.1577,-0.1462,-0.137,-0.1081,-0.0695,-0.0221,-0.0078,0.0219,0.015,0.0285,0.0304,0.0295,0.0363,0.0046,0.0233,0.0233,0.0232,0.0232,0.0231,0,-0.1362,-0.1435,-0.1502,-0.1573,-0.1613,-0.163,-0.1649,-0.16,-0.1525,-0.1317,-0.1141,-0.0605,-0.0226,0.0105,0.0493,0.0627,0.0616,0.0665,0.0652,0.0681,0.0384,0.0384,0.0649,0.0649,0.0649,0.0649,0.0649,0.0649,-0.1379,-0.1455,-0.1505,-0.1588,-0.1628,-0.1635,-0.1625,-0.1516,-0.1344,-0.0932,-0.0546,-0.0244,0.0165,0.0616,0.0923,0.0938,0.1022,0.1009,0.1055,0.0816,0.078,0.0745,0.0752,0.1091,0.1091,0.134,0.1342,0.1344]}],[{"header":{"parameterUnit":"m.s-1","parameterCategory":2,"la1":30.2991,"la2":30.254,"lo1":-89.0895,"lo2":-89.0444,"dy":0.0017,"dx":0.0017,"nx":28,"ny":28,"refTime":"2023-11-17T09:00:00:Z","depth":"2","parameterNumber":2,"parameterNumberName":"U-component_of_CURRENTS"},"data":[0,0,0,0,0,0,0,0,0,0,0,0,0,0,0,0,0,0,0,0,0,0,0,0,0,0,0,0,0,0,0,0,0,0,0,0,0,0,0,0,0,0,0,0,0,0,0,0,0,0,0,0,0,0,0,0,0,0,-0.1576,-0.1576,0,-0.1621,-0.1622,-0.1622,-0.1665,-0.1665,-0.1666,-0.1666,-0.1633,-0.1632,-0.1631,0,0,0,0,0,0,0,0,0,0,0,0,0,-0.1528,-0.1529,-0.1576,-0.1576,-0.1576,-0.1621,-0.1622,-0.1622,-0.1665,-0.1665,-0.1666,-0.1666,-0.1633,-0.1632,-0.163,0,0,0,0,0,0,0,0,0,0,0,0,0,-0.156,-0.1529,-0.1575,-0.1601,-0.1604,-0.1621,-0.1622,-0.1623,-0.1665,-0.1665,-0.1666,-0.1666,-0.1634,-0.1632,-0.163,-0.1609,0,0,-0.1625,-0.1624,0,0,0,0,0,0,0,0,-0.1558,-0.1562,-0.1597,-0.16,-0.1602,-0.1636,-0.1593,-0.1613,-0.1665,-0.1644,-0.1666,-0.1666,-0.1625,-0.1624,-0.1635,-0.1607,-0.1606,-0.1625,-0.1624,-0.1623,-0.1622,0,0,0,0,0,0,0,-0.1556,-0.1561,-0.1596,-0.1597,-0.1601,-0.1611,-0.1617,-0.1597,-0.1631,-0.1646,-0.1648,-0.165,-0.1626,-0.1637,-0.1635,-0.1605,-0.1625,-0.1623,-0.1622,-0.1621,-0.1597,-0.1597,0,0,0,0,0,0,-0.1546,-0.1558,-0.1594,-0.1597,-0.1579,-0.1611,-0.1618,-0.1626,-0.1633,-0.1635,-0.1649,-0.1652,-0.164,-0.1637,-0.1633,-0.1645,-0.1623,-0.1621,-0.162,-0.1596,-0.1597,-0.1597,0,0,0,0,0,0,-0.1545,-0.1549,-0.1592,-0.1577,-0.1583,-0.1611,-0.1621,-0.1627,-0.1648,-0.1636,-0.1637,-0.1665,-0.164,-0.1636,-0.1613,-0.1642,-0.162,-0.1619,-0.1596,-0.1597,-0.1597,-0.1643,0,0,0,0,0,0,-0.1543,-0.1548,-0.1563,-0.1576,-0.1583,-0.1615,-0.1621,-0.1627,-0.1646,-0.165,-0.1649,-0.1647,-0.164,-0.1615,-0.1611,-0.1639,-0.1617,-0.1595,-0.1596,-0.1597,-0.1641,-0.1645,-0.1648,0,0,0,0,0,-0.1542,-0.1549,-0.1564,-0.1569,-0.1599,-0.1615,-0.1621,-0.1644,-0.1646,-0.1663,-0.1646,-0.1647,-0.1619,-0.1613,-0.1608,-0.1637,-0.1595,-0.1596,-0.1597,-0.1639,-0.1644,-0.1648,0,0,0,0,0,0,-0.1527,-0.1554,-0.1571,-0.1585,-0.1607,-0.1622,-0.1631,-0.1646,-0.165,-0.1648,-0.1635,-0.1631,-0.1634,-0.1617,-0.1611,-0.1632,-0.1614,-0.1614,-0.1648,-0.1652,-0.1656,-0.1637,-0.1616,0,0,0,0,0,-0.1532,-0.1549,-0.1575,-0.1585,-0.1594,-0.1615,-0.1626,-0.1645,-0.1644,-0.1649,-0.165,-0.1641,-0.1633,-0.1625,-0.1622,-0.1613,-0.1619,-0.1633,-0.1637,-0.164,-0.1621,-0.1702,-0.1712,-0.1601,-0.1601,-0.16,0,0,-0.1525,-0.1543,-0.1552,-0.1585,-0.1597,-0.1619,-0.1624,-0.1642,-0.1664,-0.1639,-0.1662,-0.1655,-0.1634,-0.164,-0.164,-0.1627,-0.1666,-0.1642,-0.1645,-0.1623,-0.1704,-0.1715,-0.1725,-0.1601,-0.1601,-0.1601,0,0,-0.1519,-0.1537,-0.1556,-0.1569,-0.1599,-0.1622,-0.1629,-0.1658,-0.1676,-0.1688,-0.1682,-0.1683,-0.1674,-0.1673,-0.1664,-0.168,-0.169,-0.1688,-0.1686,-0.1766,-0.1776,-0.1785,-0.1773,-0.1781,-0.1685,-0.1685,-0.1686,0,-0.1518,-0.1539,-0.1562,-0.1577,-0.1592,-0.1623,-0.1646,-0.1665,-0.1689,-0.1698,-0.17,-0.1707,-0.1693,-0.1694,-0.1692,-0.1692,-0.1707,-0.1673,-0.1774,-0.1783,-0.1792,-0.1778,-0.1786,-0.1688,-0.1688,-0.1687,-0.1687,0,-0.1526,-0.1542,-0.1542,-0.1585,-0.1613,-0.1625,-0.1661,-0.1689,-0.1715,-0.1737,-0.1759,-0.1748,-0.1752,-0.1756,-0.1714,-0.1762,-0.174,-0.178,-0.1767,-0.1806,-0.1787,-0.1795,-0.1691,-0.169,-0.169,-0.1689,0,0,-0.1514,-0.155,-0.1547,-0.1564,-0.1615,-0.1633,-0.1673,-0.1718,-0.1744,-0.1773,-0.1813,-0.1787,-0.1794,-0.1781,-0.1765,-0.1802,-0.1856,-0.18,-0.1803,-0.1792,-0.1973,-0.1808,-0.18,-0.1933,-0.1935,-0.1937,-0.1923,0,-0.1516,-0.1543,-0.1573,-0.16,-0.1614,-0.1654,-0.1692,-0.1736,-0.1777,-0.1825,-0.1827,-0.1858,-0.1803,-0.1816,-0.1843,-0.1867,-0.1883,-0.1851,-0.1929,-0.1928,-0.1786,-0.1807,-0.166,-0.1623,-0.193,-0.1931,-0.1932,0,-0.1515,-0.1531,-0.1561,-0.1607,-0.1619,-0.1652,-0.1722,-0.1759,-0.1822,-0.1852,-0.1882,-0.1907,-0.1921,-0.191,-0.1947,-0.1934,-0.1936,-0.1949,-0.1951,-0.1783,-0.1779,-0.164,-0.1626,-0.1945,-0.1944,-0.1943,-0.1942,0,-0.1479,-0.1522,-0.1549,-0.1555,-0.1616,-0.1643,-0.1691,-0.1761,-0.18,-0.1878,-0.192,-0.1963,-0.1993,-0.203,-0.1996,-0.2006,-0.2042,-0.2087,-0.1927,-0.1913,-0.1788,-0.1758,-0.2131,-0.2131,-0.2131,-0.2131,-0.2131,0,-0.1458,-0.1468,-0.1529,-0.1518,-0.1568,-0.1624,-0.1686,-0.173,-0.1817,-0.1865,-0.1924,-0.1958,-0.2036,-0.2053,-0.2034,-0.1958,-0.2079,-0.1902,-0.1909,-0.1791,-0.1763,-0.2051,-0.2042,-0.213,-0.213,-0.2131,-0.2131,0,-0.1411,-0.1442,-0.1445,-0.1499,-0.154,-0.1561,-0.1676,-0.1715,-0.1795,-0.1867,-0.1899,-0.1982,-0.1979,-0.1988,-0.204,-0.1983,-0.1958,-0.1903,-0.1692,-0.1672,-0.1764,-0.1757,-0.1753,-0.1747,-0.1742,-0.1738,-0.1735,0,-0.1401,-0.1399,-0.142,-0.1438,-0.1464,-0.1532,-0.1589,-0.1686,-0.1737,-0.1853,-0.1878,-0.1918,-0.1886,-0.184,-0.1772,-0.169,-0.18,-0.1524,-0.1516,-0.1722,-0.1731,-0.1732,-0.1732,-0.1364,-0.1358,-0.1353,-0.1349,0,-0.1369,-0.1356,-0.1356,-0.1379,-0.1418,-0.1474,-0.1561,-0.1603,-0.1712,-0.1753,-0.1786,-0.1774,-0.1704,-0.1544,-0.1428,-0.1381,-0.1526,-0.1413,-0.1749,-0.146,-0.1349,-0.136,-0.1375,-0.1304,-0.1308,-0.1312,-0.1314,-0.1316,-0.1346,-0.1319,-0.1303,-0.1328,-0.1362,-0.1387,-0.1403,-0.1488,-0.1521,-0.1544,-0.1604,-0.1494,-0.1472,-0.1178,-0.11,-0.1047,-0.1167,-0.1146,-0.1166,-0.119,-0.1125,-0.1011,-0.0885,-0.0887,-0.0888,-0.089,-0.0891,0,-0.1294,-0.1272,-0.1283,-0.1262,-0.126,-0.1311,-0.1364,-0.1349,-0.1331,-0.1329,-0.1287,-0.1084,-0.0916,-0.0894,-0.0722,-0.0686,-0.074,-0.0675,-0.0759,-0.0801,-0.0839,-0.0762,-0.0422,-0.0421,-0.042,-0.0419,0,0,-0.126,-0.1221,-0.1205,-0.1158,-0.1172,-0.113,-0.1128,-0.1091,-0.1055,-0.0966,-0.0872,-0.0839,-0.0838,-0.0619,-0.0572,-0.047,-0.0644,-0.0443,-0.0814,-0.0954,-0.0991,-0.1093,-0.1016,0,0,0,0,0]},{"header":{"parameterUnit":"m.s-1","parameterCategory":2,"la1":30.2991,"la2":30.254,"lo1":-89.0895,"lo2":-89.0444,"dy":0.0017,"dx":0.0017,"nx":28,"ny":28,"refTime":"2023-11-17T09:00:00:Z","depth":"2","parameterNumber":3,"parameterNumberName":"V-component_of_CURRENTS"},"data":[0,0,0,0,0,0,0,0,0,0,0,0,0,0,0,0,0,0,0,0,0,0,0,0,0,0,0,0,0,0,0,0,0,0,0,0,0,0,0,0,0,0,0,0,0,0,0,0,0,0,0,0,0,0,0,0,0,0,0.0047,0.0047,0,0.0084,0.0084,0.0085,0.0098,0.0098,0.0097,0.0097,0.0216,0.0219,0.0223,0,0,0,0,0,0,0,0,0,0,0,0,0,0.0046,0.0046,0.0047,0.0047,0.0048,0.0083,0.0084,0.0085,0.0098,0.0098,0.0097,0.0097,0.0215,0.0219,0.0223,0,0,0,0,0,0,0,0,0,0,0,0,0,0.0063,0.0046,0.0047,0.0056,0.0057,0.0083,0.0084,0.0085,0.0098,0.0098,0.0097,0.0096,0.0213,0.0218,0.0224,0.0268,0,0,0.024,0.0242,0,0,0,0,0,0,0,0,0.0062,0.0064,0.0055,0.0056,0.0057,0.0083,0.0127,0.0149,0.0098,0.0086,0.0097,0.0096,0.0178,0.0186,0.0197,0.0273,0.0279,0.024,0.0243,0.0246,0.0247,0,0,0,0,0,0,0,0.0061,0.0062,0.0064,0.0055,0.0056,0.0078,0.0079,0.0132,0.0138,0.0087,0.0087,0.0087,0.0179,0.0192,0.02,0.028,0.024,0.0245,0.0248,0.025,0.0344,0.0344,0,0,0,0,0,0,0.0048,0.0061,0.0063,0.0065,0.0055,0.0078,0.008,0.0078,0.0136,0.0143,0.0087,0.0087,0.0183,0.0194,0.0204,0.0225,0.0246,0.0251,0.0254,0.0345,0.0344,0.0343,0,0,0,0,0,0,0.0048,0.0048,0.0062,0.0062,0.0065,0.0078,0.0076,0.0079,0.0076,0.0135,0.0144,0.008,0.0183,0.0197,0.024,0.0231,0.0253,0.0258,0.0346,0.0345,0.0344,0.029,0,0,0,0,0,0,0.0048,0.0048,0.004,0.0061,0.0064,0.0058,0.0076,0.008,0.0077,0.0077,0.0132,0.0143,0.0183,0.0232,0.0246,0.0239,0.0262,0.0347,0.0345,0.0344,0.0292,0.0287,0.0283,0,0,0,0,0,0.0048,0.0038,0.0039,0.0039,0.0053,0.0057,0.006,0.0071,0.0076,0.0068,0.0113,0.014,0.0233,0.0237,0.0253,0.0247,0.0347,0.0346,0.0344,0.0295,0.0288,0.0283,0,0,0,0,0,0,0.0037,0.0039,0.004,0.0033,0.0034,0.0057,0.0053,0.0061,0.0089,0.0091,0.0148,0.0163,0.0189,0.0227,0.0229,0.0267,0.0289,0.029,0.0245,0.024,0.0235,0.0229,0.0266,0,0,0,0,0,0.003,0.0023,0.0027,0.0022,0.0017,0.0033,0.0035,0.0039,0.0066,0.0076,0.0113,0.0156,0.0198,0.0225,0.0261,0.0299,0.0316,0.0298,0.0293,0.0289,0.0292,0.0283,0.0277,0.0339,0.0339,0.0339,0,0,0.0028,0.0026,0.0024,0.0019,0.0023,0.0009,0.0033,0.0027,0.0021,0.0089,0.0097,0.014,0.0201,0.0231,0.0246,0.0263,0.0284,0.0287,0.0283,0.0289,0.028,0.0274,0.0269,0.0338,0.0338,0.0338,0,0,0.0011,0.0013,-0.0007,-0.0009,-0.0017,-0.0011,-0.0021,-0.0012,-0.0006,0.0012,0.0056,0.0094,0.0152,0.0196,0.0228,0.022,0.0251,0.0224,0.0208,0.0198,0.0193,0.0188,0.0219,0.0217,0.023,0.023,0.023,0,0.0002,-0.0019,-0.0011,-0.0032,-0.0043,-0.0028,-0.0057,-0.0042,-0.002,-0.0004,-0.0,0.0087,0.0134,0.0192,0.0188,0.021,0.0219,0.0228,0.0191,0.0187,0.0183,0.0215,0.0214,0.0227,0.0227,0.0228,0.0228,0,-0.0039,-0.005,-0.006,-0.0086,-0.0098,-0.0114,-0.0109,-0.0107,-0.0098,-0.0074,-0.0035,0.003,0.0082,0.0101,0.0151,0.0161,0.0181,0.0177,0.0204,0.0173,0.021,0.021,0.0223,0.0224,0.0225,0.0225,0,0,-0.0074,-0.0089,-0.0095,-0.0112,-0.0131,-0.0145,-0.0152,-0.0149,-0.0142,-0.0112,-0.0104,-0.0019,0.0017,0.0056,0.0115,0.0127,0.012,0.0143,0.0144,0.0172,0.0121,0.0171,0.0177,0.0099,0.0098,0.0097,0.0162,0,-0.0114,-0.016,-0.0163,-0.0204,-0.0227,-0.0216,-0.0226,-0.0213,-0.0188,-0.0173,-0.0099,-0.0072,-0.0,0.0018,0.0044,0.0091,0.0115,0.0105,0.0149,0.0151,0.0197,0.0176,0.017,0.0229,0.0163,0.0163,0.0163,0,-0.0172,-0.0185,-0.0239,-0.0258,-0.0272,-0.0294,-0.0304,-0.0313,-0.0268,-0.0244,-0.0188,-0.0141,-0.0083,-0.0054,0.0031,0.0016,0.0068,0.0108,0.011,0.0176,0.0201,0.0246,0.0232,0.0164,0.0164,0.0164,0.0164,0,-0.0208,-0.0247,-0.0291,-0.0299,-0.0317,-0.0334,-0.0355,-0.0329,-0.0339,-0.0297,-0.0284,-0.021,-0.0191,-0.0127,-0.001,-0.0013,0.0069,0.0066,0.0175,0.0181,0.0197,0.0204,0.0108,0.0108,0.0108,0.0108,0.0108,0,-0.0259,-0.0289,-0.0309,-0.0316,-0.0376,-0.0382,-0.0423,-0.0411,-0.0408,-0.0418,-0.0327,-0.0303,-0.022,-0.0146,-0.0046,0.0082,0.0042,0.0177,0.0192,0.0181,0.0186,0.0142,0.0145,0.011,0.011,0.0109,0.0109,0,-0.0306,-0.0314,-0.0333,-0.0349,-0.0389,-0.0423,-0.0494,-0.0511,-0.0485,-0.0501,-0.0501,-0.0406,-0.0301,-0.0167,-0.0065,0.0035,0.0146,0.0205,0.0215,0.023,0.0275,0.0275,0.0308,0.031,0.0311,0.0313,0.0314,0,-0.0337,-0.0363,-0.0368,-0.041,-0.0428,-0.0497,-0.0557,-0.056,-0.0578,-0.0546,-0.0556,-0.046,-0.0352,-0.0133,0.0024,0.0211,0.0209,0.0311,0.0303,0.028,0.0292,0.0288,0.0285,0.0312,0.0314,0.0315,0.0315,0,-0.0388,-0.0377,-0.039,-0.0466,-0.0522,-0.0593,-0.0667,-0.0692,-0.0694,-0.0657,-0.0598,-0.0513,-0.0295,-0.0087,0.0152,0.0253,0.0276,0.0336,0.0285,0.0265,0.029,0.03,0.0296,0.0324,0.0323,0.0322,0.0322,0.0321,-0.0417,-0.0433,-0.0453,-0.0545,-0.0604,-0.0675,-0.0727,-0.0757,-0.0761,-0.0681,-0.0619,-0.0408,-0.0257,0.013,0.0253,0.0375,0.0369,0.041,0.0404,0.0398,0.0389,0.0415,0.0474,0.0474,0.0474,0.0474,0.0474,0,-0.0431,-0.0494,-0.0568,-0.0624,-0.0705,-0.0735,-0.0803,-0.081,-0.0784,-0.0627,-0.0507,-0.0265,-0.0009,0.0167,0.0374,0.0473,0.0437,0.048,0.0419,0.0412,0.0405,0.0393,0.048,0.048,0.048,0.0481,0,0,-0.0449,-0.0523,-0.0566,-0.0709,-0.0785,-0.0865,-0.0892,-0.0852,-0.0735,-0.0549,-0.0344,-0.011,0.0077,0.0225,0.0323,0.042,0.0385,0.0418,0.0406,0.0315,0.0306,0.0363,0.0337,0,0,0,0,0]}],[{"header":{"parameterUnit":"m.s-1","parameterCategory":2,"la1":30.2991,"la2":30.254,"lo1":-89.0895,"lo2":-89.0444,"dy":0.0017,"dx":0.0017,"nx":28,"ny":28,"refTime":"2023-11-17T09:00:00:Z","depth":"4","parameterNumber":2,"parameterNumberName":"U-component_of_CURRENTS"},"data":[0,0,0,0,0,0,0,0,0,0,0,0,0,0,0,0,0,0,0,0,0,0,0,0,0,0,0,0,0,0,0,0,0,0,0,0,0,0,0,0,0,0,0,0,0,0,0,0,0,0,0,0,0,0,0,0,0,0,-0.102,-0.102,0,-0.1055,-0.1055,-0.1056,-0.1071,-0.1071,-0.1071,-0.1071,-0.1131,-0.1132,-0.1134,0,0,0,0,0,0,0,0,0,0,0,0,0,-0.0953,-0.0954,-0.102,-0.102,-0.1021,-0.1055,-0.1055,-0.1056,-0.1071,-0.1071,-0.1071,-0.1071,-0.1131,-0.1132,-0.1134,0,0,0,0,0,0,0,0,0,0,0,0,0,-0.0982,-0.0955,-0.1019,-0.1035,-0.1037,-0.1055,-0.1055,-0.1056,-0.107,-0.1071,-0.1071,-0.1071,-0.113,-0.1132,-0.1134,-0.1142,0,0,-0.1141,-0.1142,0,0,0,0,0,0,0,0,-0.098,-0.0984,-0.1032,-0.1034,-0.1036,-0.1061,-0.1054,-0.1087,-0.107,-0.1055,-0.1071,-0.1071,-0.1112,-0.1115,-0.1117,-0.1144,-0.1147,-0.1141,-0.1142,-0.1143,-0.1144,0,0,0,0,0,0,0,-0.0978,-0.0983,-0.1031,-0.1032,-0.1035,-0.1036,-0.104,-0.106,-0.1079,-0.1056,-0.1058,-0.1066,-0.1113,-0.1115,-0.1119,-0.1148,-0.1141,-0.1143,-0.1144,-0.1145,-0.1247,-0.1249,0,0,0,0,0,0,-0.098,-0.0981,-0.103,-0.1032,-0.1011,-0.1037,-0.1042,-0.105,-0.1079,-0.1084,-0.1066,-0.1067,-0.1111,-0.1116,-0.1121,-0.1181,-0.1143,-0.1145,-0.1146,-0.1246,-0.1247,-0.1249,0,0,0,0,0,0,-0.0979,-0.0984,-0.1028,-0.1009,-0.1016,-0.1038,-0.1048,-0.1051,-0.1069,-0.1086,-0.1092,-0.1083,-0.1111,-0.1118,-0.1153,-0.1182,-0.1146,-0.1148,-0.1244,-0.1246,-0.1248,-0.1271,0,0,0,0,0,0,-0.0976,-0.0983,-0.0994,-0.101,-0.1017,-0.1049,-0.1048,-0.1052,-0.1074,-0.1076,-0.1103,-0.1107,-0.1112,-0.115,-0.1155,-0.1184,-0.115,-0.1242,-0.1245,-0.1248,-0.1268,-0.1273,-0.1278,0,0,0,0,0,-0.0974,-0.0985,-0.0994,-0.1001,-0.103,-0.105,-0.1053,-0.1068,-0.1075,-0.1085,-0.1105,-0.1107,-0.1171,-0.1152,-0.1158,-0.1189,-0.1241,-0.1244,-0.1247,-0.1266,-0.1272,-0.1278,0,0,0,0,0,0,-0.0961,-0.0988,-0.0999,-0.1018,-0.1038,-0.1053,-0.1067,-0.1078,-0.11,-0.1108,-0.112,-0.1127,-0.117,-0.1178,-0.1157,-0.1228,-0.1209,-0.1214,-0.1221,-0.1227,-0.1232,-0.1218,-0.1151,0,0,0,0,0,-0.0965,-0.0981,-0.1005,-0.1023,-0.1034,-0.1054,-0.1066,-0.1079,-0.11,-0.111,-0.1129,-0.1156,-0.1185,-0.1204,-0.1226,-0.1262,-0.1257,-0.1289,-0.1294,-0.1298,-0.1292,-0.1307,-0.1312,-0.126,-0.126,-0.126,0,0,-0.0965,-0.0983,-0.0993,-0.1022,-0.1038,-0.1059,-0.1062,-0.1087,-0.1111,-0.1114,-0.1153,-0.1173,-0.1199,-0.1239,-0.126,-0.1251,-0.1312,-0.1302,-0.1305,-0.1297,-0.1311,-0.1316,-0.132,-0.1262,-0.1261,-0.1261,0,0,-0.097,-0.0992,-0.1006,-0.1026,-0.1058,-0.1072,-0.1084,-0.1111,-0.113,-0.1167,-0.118,-0.1213,-0.1257,-0.1277,-0.1295,-0.1341,-0.1336,-0.136,-0.1375,-0.139,-0.1394,-0.1397,-0.1399,-0.1402,-0.1364,-0.1364,-0.1364,0,-0.0971,-0.0994,-0.1013,-0.1034,-0.1056,-0.1081,-0.1104,-0.1126,-0.1163,-0.1183,-0.1186,-0.1254,-0.1274,-0.1323,-0.1339,-0.1352,-0.1353,-0.1348,-0.1394,-0.1397,-0.14,-0.1401,-0.1404,-0.1366,-0.1365,-0.1365,-0.1365,0,-0.0984,-0.101,-0.1022,-0.1058,-0.1081,-0.1107,-0.1142,-0.1171,-0.1199,-0.1221,-0.1276,-0.1299,-0.1336,-0.1357,-0.1362,-0.1404,-0.1396,-0.1395,-0.1373,-0.1406,-0.1406,-0.1409,-0.1368,-0.1367,-0.1367,-0.1366,0,0,-0.0968,-0.1021,-0.1027,-0.1048,-0.11,-0.1117,-0.1165,-0.121,-0.1241,-0.128,-0.1319,-0.1369,-0.1376,-0.1396,-0.1412,-0.1427,-0.145,-0.142,-0.142,-0.141,-0.1475,-0.1353,-0.1345,-0.1457,-0.1457,-0.1458,-0.1466,0,-0.0975,-0.1014,-0.1043,-0.1085,-0.1108,-0.1152,-0.1193,-0.1238,-0.1277,-0.1318,-0.1355,-0.1394,-0.1395,-0.1414,-0.1431,-0.1447,-0.1458,-0.1447,-0.1454,-0.1454,-0.1332,-0.1344,-0.146,-0.1468,-0.1469,-0.1469,-0.147,0,-0.0973,-0.1005,-0.1044,-0.1102,-0.1117,-0.1148,-0.1215,-0.1253,-0.1318,-0.135,-0.1392,-0.1415,-0.1453,-0.1443,-0.1477,-0.147,-0.1471,-0.1477,-0.1478,-0.1354,-0.1336,-0.143,-0.1475,-0.1474,-0.1474,-0.1474,-0.1473,0,-0.0939,-0.1,-0.1032,-0.1053,-0.1123,-0.1155,-0.1195,-0.1262,-0.1299,-0.1363,-0.1395,-0.1439,-0.1467,-0.1477,-0.1487,-0.1485,-0.1512,-0.1512,-0.1404,-0.1396,-0.1493,-0.149,-0.1527,-0.1527,-0.1526,-0.1526,-0.1526,0,-0.0921,-0.0945,-0.102,-0.1037,-0.1083,-0.1136,-0.1189,-0.1236,-0.1305,-0.1342,-0.1401,-0.1426,-0.1477,-0.1497,-0.1495,-0.1448,-0.1518,-0.1396,-0.1386,-0.1504,-0.1502,-0.1495,-0.1491,-0.1527,-0.1527,-0.1527,-0.1527,0,-0.0857,-0.0911,-0.0951,-0.1036,-0.1064,-0.1091,-0.1179,-0.1215,-0.1286,-0.1335,-0.1354,-0.1427,-0.1432,-0.1466,-0.1485,-0.1445,-0.1422,-0.1392,-0.1511,-0.1509,-0.1295,-0.1293,-0.126,-0.1256,-0.1252,-0.1249,-0.1246,0,-0.0826,-0.0839,-0.0935,-0.0967,-0.1005,-0.1063,-0.1106,-0.1192,-0.1226,-0.1316,-0.1328,-0.1367,-0.1397,-0.1332,-0.137,-0.1343,-0.1331,-0.1321,-0.1302,-0.1272,-0.1266,-0.127,-0.1273,-0.1241,-0.124,-0.1239,-0.1238,0,-0.0763,-0.0801,-0.0839,-0.0907,-0.0959,-0.1009,-0.1073,-0.1091,-0.118,-0.126,-0.1259,-0.1252,-0.1256,-0.1248,-0.1237,-0.1223,-0.1325,-0.1282,-0.129,-0.1272,-0.1248,-0.1247,-0.1254,-0.1225,-0.1227,-0.1228,-0.1229,0,-0.072,-0.0727,-0.0786,-0.0833,-0.0898,-0.0928,-0.0979,-0.1016,-0.1055,-0.1156,-0.1147,-0.1186,-0.124,-0.1184,-0.1175,-0.1143,-0.112,-0.1095,-0.1111,-0.1126,-0.1074,-0.1024,-0.0912,0,0,0,0,0,-0.0674,-0.0667,-0.071,-0.0762,-0.0823,-0.0857,-0.0943,-0.0997,-0.1087,-0.1052,-0.1094,-0.1083,-0.1051,-0.1073,-0.1006,-0.1102,-0.1124,-0.1021,-0.1106,-0.1155,-0.1169,-0.1118,0,0,0,0,0,0,-0.0639,-0.0664,-0.0677,-0.0685,-0.0706,-0.0761,-0.0812,-0.0881,-0.087,-0.096,-0.0946,-0.1006,-0.0989,-0.1059,-0.0977,-0.0982,-0.1011,-0.1045,-0.1042,-0.1146,-0.116,-0.1171,-0.1124,0,0,0,0,0]},{"header":{"parameterUnit":"m.s-1","parameterCategory":2,"la1":30.2991,"la2":30.254,"lo1":-89.0895,"lo2":-89.0444,"dy":0.0017,"dx":0.0017,"nx":28,"ny":28,"refTime":"2023-11-17T09:00:00:Z","depth":"4","parameterNumber":3,"parameterNumberName":"V-component_of_CURRENTS"},"data":[0,0,0,0,0,0,0,0,0,0,0,0,0,0,0,0,0,0,0,0,0,0,0,0,0,0,0,0,0,0,0,0,0,0,0,0,0,0,0,0,0,0,0,0,0,0,0,0,0,0,0,0,0,0,0,0,0,0,0.009,0.009,0,0.0111,0.0112,0.0112,0.0142,0.0142,0.0143,0.0143,0.0193,0.0194,0.0195,0,0,0,0,0,0,0,0,0,0,0,0,0,0.0108,0.0107,0.009,0.009,0.0091,0.0111,0.0112,0.0112,0.0142,0.0142,0.0143,0.0143,0.0193,0.0194,0.0195,0,0,0,0,0,0,0,0,0,0,0,0,0,0.0112,0.0107,0.009,0.0107,0.0109,0.0111,0.0112,0.0112,0.0142,0.0142,0.0143,0.0143,0.0193,0.0194,0.0195,0.0192,0,0,0.02,0.02,0,0,0,0,0,0,0,0,0.0112,0.0112,0.0104,0.0106,0.0108,0.0124,0.0136,0.014,0.0141,0.013,0.0143,0.0144,0.0171,0.0175,0.0178,0.0194,0.0197,0.02,0.0201,0.0201,0.0202,0,0,0,0,0,0,0,0.0112,0.0111,0.01,0.0105,0.0107,0.0124,0.0126,0.0137,0.0149,0.0131,0.0133,0.0134,0.0173,0.0177,0.018,0.0197,0.02,0.0201,0.0202,0.0203,0.0233,0.0233,0,0,0,0,0,0,0.0104,0.0111,0.0099,0.01,0.011,0.0123,0.0125,0.0119,0.0148,0.0152,0.0133,0.0135,0.0174,0.0178,0.0182,0.0194,0.0201,0.0203,0.0204,0.0233,0.0233,0.0233,0,0,0,0,0,0,0.0104,0.0103,0.0098,0.0106,0.0106,0.0122,0.0115,0.0119,0.0123,0.0149,0.0154,0.0134,0.0175,0.018,0.0194,0.0196,0.0203,0.0205,0.0233,0.0233,0.0233,0.0209,0,0,0,0,0,0,0.0105,0.0103,0.0098,0.0105,0.0105,0.0098,0.0115,0.0119,0.0122,0.0125,0.0151,0.0156,0.0176,0.0192,0.0195,0.0198,0.0206,0.0233,0.0233,0.0233,0.021,0.0208,0.0207,0,0,0,0,0,0.0105,0.0097,0.0098,0.0097,0.0098,0.0097,0.0099,0.0114,0.0121,0.0121,0.0141,0.0156,0.0194,0.0193,0.0197,0.02,0.0233,0.0233,0.0233,0.0211,0.0209,0.0207,0,0,0,0,0,0,0.0106,0.0099,0.01,0.0092,0.0092,0.0102,0.0102,0.0109,0.0123,0.0126,0.0153,0.0159,0.0171,0.0187,0.0185,0.0209,0.0217,0.0218,0.0198,0.0196,0.0195,0.019,0.0207,0,0,0,0,0,0.0101,0.0092,0.0091,0.0084,0.0081,0.0089,0.0091,0.0097,0.0109,0.0115,0.0137,0.0158,0.0173,0.0186,0.02,0.0212,0.0232,0.0217,0.0216,0.0214,0.0213,0.0254,0.0256,0.0233,0.0233,0.0233,0,0,0.0101,0.0095,0.0092,0.0083,0.0084,0.0077,0.0092,0.0089,0.0089,0.0118,0.0131,0.0149,0.0173,0.0188,0.0195,0.0203,0.0229,0.0214,0.0213,0.0213,0.0254,0.0256,0.0258,0.0233,0.0233,0.0233,0,0,0.0091,0.0087,0.0074,0.0069,0.0062,0.0067,0.0063,0.0069,0.008,0.0087,0.0111,0.0132,0.0153,0.0178,0.0191,0.0189,0.0214,0.0192,0.0186,0.0225,0.0227,0.023,0.0246,0.025,0.0197,0.0197,0.0197,0,0.0091,0.007,0.0072,0.0055,0.0049,0.0059,0.0044,0.0055,0.0069,0.0079,0.0087,0.0129,0.015,0.0176,0.0177,0.0186,0.0204,0.0191,0.0223,0.0226,0.0229,0.0245,0.025,0.0196,0.0196,0.0196,0.0196,0,0.0067,0.0052,0.0043,0.0025,0.0021,0.0008,0.0016,0.0023,0.0034,0.005,0.0075,0.0108,0.0135,0.0146,0.016,0.0191,0.0195,0.0212,0.0228,0.023,0.0247,0.0252,0.0194,0.0194,0.0195,0.0195,0,0,0.0059,0.0032,0.0027,0.001,-0.0,-0.001,-0.0006,0.0,0.0005,0.0033,0.0049,0.0084,0.0108,0.0124,0.0152,0.0189,0.0222,0.0208,0.021,0.0222,0.0293,0.0267,0.0271,0.0248,0.0249,0.025,0.0292,0,0.0037,-0.0001,-0.0006,-0.0037,-0.0057,-0.0049,-0.0049,-0.0039,-0.0017,0.0005,0.0051,0.0072,0.0099,0.0111,0.0154,0.0205,0.0237,0.0208,0.0291,0.0292,0.0269,0.0277,0.0253,0.0296,0.0298,0.0299,0.0299,0,0.0011,-0.0014,-0.005,-0.0079,-0.0087,-0.0098,-0.0101,-0.0101,-0.0062,-0.0042,-0.0001,0.0036,0.0091,0.0112,0.0207,0.0188,0.0235,0.0276,0.0279,0.0268,0.0277,0.0298,0.0309,0.0309,0.0308,0.0307,0.0307,0,-0.0004,-0.0045,-0.0077,-0.0088,-0.0113,-0.0123,-0.0135,-0.0114,-0.0116,-0.007,-0.0058,0.0016,0.0046,0.0127,0.0205,0.0212,0.0304,0.0328,0.0347,0.0345,0.0366,0.0364,0.0393,0.0393,0.0393,0.0392,0.0392,0,-0.0027,-0.0049,-0.009,-0.0106,-0.015,-0.0156,-0.0182,-0.0173,-0.0157,-0.0157,-0.0087,-0.0063,0.0053,0.0118,0.0198,0.0279,0.03,0.0344,0.0358,0.0352,0.0348,0.0369,0.0366,0.0394,0.0394,0.0393,0.0393,0,-0.0026,-0.0052,-0.0094,-0.0137,-0.0158,-0.0189,-0.0231,-0.0245,-0.0221,-0.0215,-0.0203,-0.012,-0.0031,0.0071,0.0197,0.0256,0.0344,0.0365,0.0328,0.034,0.0362,0.0357,0.0404,0.0404,0.0403,0.0403,0.0403,0,-0.0029,-0.0051,-0.0119,-0.0166,-0.0188,-0.0239,-0.0276,-0.0278,-0.0287,-0.0249,-0.0245,-0.0164,-0.0098,0.0058,0.0167,0.0306,0.0326,0.0365,0.0388,0.0356,0.0365,0.0361,0.0357,0.0402,0.0402,0.0402,0.0402,0,-0.0037,-0.0058,-0.0098,-0.0193,-0.0251,-0.031,-0.0355,-0.0364,-0.0357,-0.0332,-0.0269,-0.0176,-0.0083,0.0051,0.0145,0.025,0.0343,0.0362,0.0364,0.0386,0.0354,0.0363,0.0359,0.04,0.04,0.0401,0.0401,0,-0.0047,-0.0077,-0.0143,-0.0227,-0.0303,-0.0364,-0.0385,-0.0393,-0.0396,-0.0338,-0.0319,-0.02,-0.0125,0.002,0.0112,0.0205,0.0243,0.0283,0.029,0.0293,0.0249,0.0191,0.02,0,0,0,0,0,-0.0056,-0.0099,-0.0183,-0.028,-0.0352,-0.0395,-0.0434,-0.0441,-0.0422,-0.0382,-0.0347,-0.0254,-0.0095,-0.0022,0.0069,0.0098,0.0244,0.0206,0.029,0.0393,0.0394,0.036,0,0,0,0,0,0,-0.0066,-0.0132,-0.0182,-0.0306,-0.0375,-0.0453,-0.0475,-0.0467,-0.0435,-0.0392,-0.0305,-0.0238,-0.0086,-0.015,0.0068,0.0097,0.0162,0.0287,0.0289,0.0392,0.0393,0.0394,0.0359,0,0,0,0,0]}]]